Find OneWeb SL0263

NORAD ID: 48981 Int'l Des: 2021-060 Owner: ONEWEBN Country: UK Constellation: oneweb operational
別名: ONEWEB-0263 spacetrack, celestrak
LEOCIRCULARPOLARONEWEB_TYPE

現在のビュー

3D地球を読み込み中...

About OneWeb SL0263

OneWeb SL0263 (NORAD 48981) is a oneweb constellation satellite launched Jul 1, 2021 by ONEWEBN of UK. It operates in LEO, CIRCULAR, POLAR, ONEWEB_TYPE orbit with a mass of 148.00 kg.

次回通過

Passes for default location (London). Set your location on the main map for personalized predictions.

高度履歴

Loading altitude history...

軌道要素

1 48981U 21060Q 26236.24036177 .00000043 00000-0 79676-4 0 9994
2 48981 87.9110 215.2639 0002384 81.0684 279.0717 13.16595445248549
Epoch: Aug 24, 2026 • Age: 32 hours

現在のステータス

高度 1202.7 km
遠地点 / 近地点 N/A
速度 7.25 km/s
衛星直下点 -8.15°S, 144.45°W
打ち上げ日 Jul 1, 2021
運用期間 5.1 years
タイプ internet

技術仕様

分類 Payload
質量 148.00 kg
乾燥質量 140.00 kg
総質量 148.00 kg
長さ 1.30 m
直径 1.00 m
スパン 5.00 m
形状 Trapezoid+2 pan
製造者 ONEWUS
バスタイプ ARROW
フェーズステータス In Orbit
所有者/国 ONEWEBN/UK

Most Searched